TERRESTAR-1

Last updated on Sun Apr 12 2026 00:02:51 GMT+0000 (Coordinated Universal Time)

1 35496U 09035A 26101.49867729 -.00000051 00000+0 00000+0 0 9991 2 35496 5.1331 48.8041 0003045 331.1048 248.3177 1.00271607 61462
UTC large
Height (km)
Speed (km/s)
/
Latitude / Longitude
Inclination (degrees)
Orbital Period (minutes)
Azimuth
Elevation
Range (km)
Doppler Factor

Next 0 passes for location: London (51.5072 / 0.1276)

Sorry there are no passes over London.
TERRESTAR-1